Flag for China Weather past 2 weeks in Changchun, Jilin, China

Now
18 °F

Passing clouds.


Feels Like: 12 °F
Forecast: 7 / 26 °F
Wind: 3 mph from Northwest

Location: Changchun Airport

Current Time: Mar 3, 2015 at 11:05:54 PM

Latest Report: Mar 3, 2015 at 10:00 PM


Visibility: N/A

Pressure: 30.01 "Hg

Humidity: 73%

Dew point: 10 °F

Location of ChangchunLocation

Historic Weather in Changchun — Graph

°F

Changchun temperature yesterday

Maximum temperature yesterday: 30 °F (at 12:00 PM)
Minimum temperature yesterday: 9 °F (at 6:00 AM)
Average temperature yesterday: 22 °F

Past Weeks' High & Low Weather Summary

 TemperatureHumidityPressure
High41 °F (Feb 20, 2:00 PM)100% (Feb 21, 7:00 AM)30.48 "Hg (Feb 21, 7:00 AM)
Low-4 °F (Feb 19, 6:00 AM)28% (Feb 20, 2:00 PM)29.71 "Hg (Feb 22, 11:00 AM)
Average20 °F68%30.08 "Hg
* Reported Feb 16 10:00 PM — Mar 3 10:00 PM, Changchun, Weather by CustomWeather, © 2015

Note: Actual official high and low records may vary slightly from our data, if they occured in-between our weather recording intervals... More about our weather records

Advertising

Changchun weather history for previous 24 hours

 ConditionsComfort  
Time TempWeatherWind HumidityBarometerVisibility
10:00 PM
Tue, Mar 3
18 °FPassing clouds.3 mph73%30.01 "HgN/A
9:00 PM18 °FPassing clouds.6 mph73%29.98 "HgN/A
8:00 PM19 °FPassing clouds.10 mph68%29.95 "HgN/A
7:00 PM21 °FLight snow. Passing clouds.8 mph63%29.95 "Hg5 mi
6:00 PM21 °FPassing clouds.8 mph68%29.95 "HgN/A
5:00 PM23 °FPartly sunny.8 mph63%29.92 "HgN/A
4:00 PM23 °FScattered clouds.8 mph63%29.92 "HgN/A
3:00 PM25 °FScattered clouds.8 mph63%29.92 "HgN/A
2:00 PM25 °FScattered clouds.8 mph69%29.92 "Hg5 mi
1:00 PM25 °FScattered clouds.10 mph63%29.92 "Hg4 mi
12:00 PM25 °FIce fog.8 mph69%29.95 "Hg3 mi
11:00 AM23 °FIce fog.6 mph68%29.95 "Hg2 mi
10:00 AM18 °FIce fog.6 mph86%29.95 "Hg1 mi
9:00 AM16 °FIce fog.6 mph86%29.95 "Hg1 mi
8:00 AM12 °FIce fog.3 mph79%29.95 "Hg1 mi
7:00 AM10 °FIce fog.3 mph79%29.95 "Hg1 mi
6:00 AM9 °FIce fog.6 mph85%29.95 "Hg2 mi
5:00 AM12 °FIce fog.3 mph85%29.95 "Hg2 mi
4:00 AM10 °FIce fog.1 mph85%29.95 "Hg2 mi
3:00 AM12 °FIce fog.1 mph85%29.95 "Hg3 mi
2:00 AM14 °FIce fog.3 mph85%29.95 "Hg3 mi
1:00 AM18 °FPassing clouds.3 mph79%29.95 "Hg4 mi
12:00 AM19 °FPassing clouds.3 mph79%29.95 "HgN/A
11:00 PM
Mon, Mar 2
23 °FPassing clouds.1 mph74%29.95 "HgN/A
Weather by CustomWeather, © 2015

See weather overviewHow to use our weather pages